Regional Weather Roundup
Issued by NWS

Home | Current Version | Previous Version | Graphics & Text | Print | Product List | Glossary Off
Versions: 1 2 3 4 5 6 7 8 9 10 11 12 13 14 15 16 17 18 19 20 21 22 23 24 25 26 27 28 29 30 31 32 33 34 35 36 37 38 39 40 41 42 43 44 45 46 47 48 49 50

000
ASUS43 KTOP 301259
RWRKS

WEATHER ROUNDUP FOR KANSAS
NATIONAL WEATHER SERVICE GOODLAND KS
800 AM CDT TUE SEP 30 2014

NOTE:  "FAIR" INDICATES FEW OR NO CLOUDS BELOW 12,000 FEET WITH NO
SIGNIFICANT WEATHER AND/OR OBSTRUCTIONS TO VISIBILITY.

KSZ001>006-013>018-027>032-041>047-301400-
NORTHWEST KANSAS

CITY           SKY/WX    TMP DP  RH WIND       PRES   REMARKS
GOODLAND       CLEAR     46  44  93 SW7       29.87S
HAYS           CLOUDY    63  55  77 W3        29.84R
HILL CITY      MOCLDY    56  53  90 CALM      29.84S
RUSSELL        CLOUDY    63  60  90 SW6       29.85R
$$

KSZ061>065-074>080-084>089-301400-
SOUTHWEST KANSAS

CITY           SKY/WX    TMP DP  RH WIND       PRES   REMARKS
DODGE CITY     CLOUDY    64  54  69 S13       29.84F
ELKHART          N/A     59  55  87 SW7         N/A
GARDEN CITY    CLOUDY    62  58  86 CALM      29.84F
GREAT BEND     CLOUDY    64  57  77 S10       29.84F
LIBERAL        CLEAR     63  54  72 S8        29.84S
$$

KSZ066>073-081>083-090>101-301400-
SOUTHEAST KANSAS

CITY           SKY/WX    TMP DP  RH WIND       PRES   REMARKS
CHANUTE        CLEAR     61  59  93 SE5       29.94R
COFFEYVILLE    CLEAR     58  56  93 CALM      29.94R
HUTCHINSON     CLOUDY    66  58  75 S12       29.87S
MEDICINE LODGE   N/A     66  58  75 SE8       29.87S
NEWTON         PTCLDY    61  54  77 SE9       29.92S
PARSONS        CLEAR     56  56 100 CALM      29.95R FOG
WICHITA INTL   MOCLDY    64  58  80 SE7       29.89S
WICHITA JABRA  PTCLDY    63  58  83 S8        29.90S
WINFIELD       PTCLDY    66  60  81 SE7       29.92S
$$

KSZ007>012-019>026-033>040-048>060-102>105-301400-
NORTHEAST KANSAS

CITY           SKY/WX    TMP DP  RH WIND       PRES   REMARKS
CONCORDIA      LGT RAIN  64  61  90 S12       29.87R
EMPORIA        CLEAR     61  59  93 S9        29.91F
LAWRENCE       CLEAR     59  57  93 E5        29.92S FOG
MANHATTAN      PTCLDY    67  59  75 S6        29.87F
OLATHE IND     CLEAR     63  58  83 SE7       29.93S
OLATHE EXE     CLEAR     61  58  90 S5        29.93S
SALINA         CLOUDY    69  59  70 S12       29.86S
TOPEKA BILLARD CLEAR     62  59  90 CALM      29.91S
TOPEKA FORBES  PTCLDY    59  56  89 S5        29.91S
$$


USA.gov is the U.S. government's official web portal to all federal, state and local government web resources and services.